NN5DX-13 Weather Reports


Display with metric or nautical units.
time (UTC)temp
F
wind
direction
speed
MPH
gust
MPH
rain 1hr
in
rain 24hr
in
rain mn
in
humidity
%
barometer
mb
20260507114516 58 0.0 1.0 0.00 0.00 0.00 80 1017.6
20260507114015 58 0.0 2.0 0.00 0.00 0.00 80 1017.8
20260507113516 58 68 1.0 5.0 0.00 0.00 0.00 79 1017.8
20260507113016 59 68 3.0 10.0 0.00 0.00 0.00 79 1017.8
20260507112516 59 0.0 0.0 0.00 0.00 0.00 79 1017.8
20260507112016 59 0.0 0.0 0.00 0.00 0.00 79 1017.8
20260507111515 59 0.0 0.0 0.00 0.00 0.00 79 1017.6
20260507111016 59 0.0 0.0 0.00 0.00 0.00 78 1017.6
20260507110516 59 0.0 0.0 0.00 0.00 0.00 78 1017.7
20260507110015 60 0.0 0.0 0.00 0.00 0.00 78 1017.5
20260507105516 60 0.0 0.0 0.00 0.00 0.00 78 1017.6
20260507105015 60 0.0 0.0 0.00 0.00 0.00 78 1017.4
20260507104516 60 0.0 0.0 0.00 0.00 0.00 78 1017.1
20260507104016 61 0.0 0.0 0.00 0.00 0.00 77 1017.3
20260507103515 61 68 1.0 13.0 0.00 0.00 0.00 77 1016.6
20260507103015 61 68 1.0 13.0 0.00 0.00 0.00 78 1016.6
20260507102516 61 0.0 1.0 0.00 0.00 0.00 76 1016.4
20260507102018 61 0.0 1.0 0.00 0.00 0.00 75 1016.0
20260507101518 62 0.0 4.0 0.00 0.00 0.00 75 1016.2
20260507101018 62 0.0 0.0 0.00 0.00 0.00 76 1016.2
20260507100517 62 0.0 2.0 0.00 0.00 0.00 75 1015.7
20260507100018 62 0.0 0.0 0.00 0.00 0.00 74 1015.7
20260507095517 62 0.0 0.0 0.00 0.00 0.00 72 1015.7
20260507095017 62 0.0 0.0 0.00 0.00 0.00 70 1015.6
20260507094518 62 0.0 0.0 0.00 0.00 0.00 69 1015.6
20260507094017 62 0.0 0.0 0.00 0.00 0.00 67 1015.7
20260507093518 62 0.0 0.0 0.00 0.00 0.00 66 1015.6
20260507093018 62 0.0 0.0 0.00 0.00 0.00 65 1015.6
20260507092518 62 0.0 1.0 0.00 0.00 0.00 63 1015.6
20260507092017 62 0.0 0.0 0.00 0.00 0.00 60 1015.7
20260507091517 63 0.0 0.0 0.00 0.00 0.00 59 1015.9
20260507091017 63 0.0 0.0 0.00 0.00 0.00 59 1015.8
20260507090518 63 0.0 0.0 0.00 0.00 0.00 59 1015.9
20260507090018 63 0.0 0.0 0.00 0.00 0.00 57 1015.8
20260507085517 64 0.0 0.0 0.00 0.00 0.00 56 1015.8
20260507085019 64 0.0 0.0 0.00 0.00 0.00 55 1015.9
20260507084517 65 0.0 0.0 0.00 0.00 0.00 54 1015.9
20260507084018 65 0.0 0.0 0.00 0.00 0.00 53 1016.2
20260507083516 65 0.0 0.0 0.00 0.00 0.00 53 1016.0
20260507083018 65 0.0 0.0 0.00 0.00 0.00 53 1015.9
20260507082517 65 0.0 0.0 0.00 0.00 0.00 53 1016.1
20260507082017 65 0.0 0.0 0.00 0.00 0.00 53 1016.2
20260507081517 65 0.0 0.0 0.00 0.00 0.00 54 1016.0
20260507081017 65 0.0 0.0 0.00 0.00 0.00 54 1016.2
20260507080517 65 0.0 0.0 0.00 0.00 0.00 54 1015.9
20260507080017 65 0.0 0.0 0.00 0.00 0.00 54 1015.9
20260507075517 65 0.0 0.0 0.00 0.00 0.00 54 1016.0
20260507075018 65 0.0 0.0 0.00 0.00 0.00 54 1015.9
20260507074518 65 0.0 0.0 0.00 0.00 0.00 53 1015.9
20260507074018 66 0.0 0.0 0.00 0.00 0.00 51 1016.2
20260507073517 66 0.0 2.0 0.00 0.00 0.00 50 1016.0
20260507073017 66 0.0 0.0 0.00 0.00 0.00 48 1016.0
20260507072518 66 0.0 0.0 0.00 0.00 0.00 46 1016.0
20260507072017 67 0.0 0.0 0.00 0.00 0.00 46 1015.9
20260507071517 66 0.0 0.0 0.00 0.00 0.00 46 1015.9
20260507071017 66 0.0 0.0 0.00 0.00 0.00 47 1015.8
20260507070517 66 0.0 0.0 0.00 0.00 0.00 47 1015.5
20260507070017 66 0.0 0.0 0.00 0.00 0.00 47 1015.5
20260507065517 66 0.0 0.0 0.00 0.00 0.00 48 1015.5
20260507065018 66 0.0 0.0 0.00 0.00 0.00 48 1015.5
20260507064518 66 0.0 0.0 0.00 0.00 0.00 50 1015.4
20260507064017 66 0.0 0.0 0.00 0.00 0.00 49 1015.5
20260507063518 66 0.0 0.0 0.00 0.00 0.00 51 1015.5
20260507063018 66 0.0 0.0 0.00 0.00 0.00 49 1015.4
20260507062517 67 0.0 0.0 0.00 0.00 0.00 49 1015.5
20260507062017 67 0.0 0.0 0.00 0.00 0.00 49 1015.0
20260507061517 66 0.0 0.0 0.00 0.00 0.00 51 1014.7
20260507061017 67 0.0 0.0 0.00 0.00 0.00 53 1014.8
20260507060517 67 0.0 0.0 0.00 0.00 0.00 54 1014.6
20260507060017 68 0.0 0.0 0.00 0.00 0.00 54 1014.5
20260507055518 68 0.0 0.0 0.00 0.00 0.00 54 1014.5
20260507055018 68 0.0 0.0 0.00 0.00 0.00 55 1014.5
20260507054518 68 0.0 0.0 0.00 0.00 0.00 55 1014.3
20260507054018 68 0.0 0.0 0.00 0.00 0.00 55 1014.3
20260507053518 68 0.0 0.0 0.00 0.00 0.00 55 1014.3
20260507053017 68 0.0 0.0 0.00 0.00 0.00 55 1014.2
20260507052517 68 0.0 1.0 0.00 0.00 0.00 55 1014.2
20260507052017 68 0.0 1.0 0.00 0.00 0.00 55 1014.1
20260507051517 68 0.0 0.0 0.00 0.00 0.00 54 1014.1
20260507051017 68 0.0 6.0 0.00 0.00 0.00 55 1014.1
20260507050518 68 0.0 0.0 0.00 0.00 0.00 54 1014.7
20260507050017 68 0.0 0.0 0.00 0.00 0.00 54 1014.6
20260507045516 68 0.0 0.0 0.00 0.00 0.00 53 1014.5
20260507045016 69 0.0 0.0 0.00 0.00 0.00 52 1014.7
20260507044517 69 0.0 0.0 0.00 0.00 0.00 52 1014.6
20260507044018 69 0.0 0.0 0.00 0.00 0.00 51 1014.6
20260507043516 69 0.0 0.0 0.00 0.00 0.00 48 1014.6
20260507043016 69 0.0 0.0 0.00 0.00 0.00 48 1014.6
20260507042517 68 0.0 0.0 0.00 0.00 0.00 48 1014.6
20260507042016 68 0.0 0.0 0.00 0.00 0.00 46 1014.4
20260507041516 68 0.0 0.0 0.00 0.00 0.00 44 1014.4
20260507041016 68 0.0 0.0 0.00 0.00 0.00 43 1014.4
20260507040516 69 0.0 0.0 0.00 0.00 0.00 42 1014.2
20260507040016 69 0.0 0.0 0.00 0.00 0.00 41 1014.1
20260507035516 69 0.0 0.0 0.00 0.00 0.00 40 1014.0
20260507035016 70 0.0 0.0 0.00 0.00 0.00 39 1014.1
20260507034516 69 0.0 0.0 0.00 0.00 0.00 39 1014.0
20260507034016 69 0.0 0.0 0.00 0.00 0.00 39 1013.9
20260507033516 69 0.0 0.0 0.00 0.00 0.00 39 1013.7
20260507033016 69 0.0 0.0 0.00 0.00 0.00 39 1013.7
20260507032517 70 0.0 0.0 0.00 0.00 0.00 39 1013.8
20260507032016 70 0.0 0.0 0.00 0.00 0.00 38 1013.8
20260507031516 70 0.0 0.0 0.00 0.00 0.00 37 1013.6
20260507031016 70 0.0 0.0 0.00 0.00 0.00 37 1013.5
20260507030516 71 0.0 0.0 0.00 0.00 0.00 37 1013.3
20260507030017 71 0.0 0.0 0.00 0.00 0.00 37 1013.3
20260507025516 71 0.0 1.0 0.00 0.00 0.00 37 1013.2
20260507025017 72 0.0 0.0 0.00 0.00 0.00 36 1013.0
20260507024517 72 0.0 0.0 0.00 0.00 0.00 36 1013.3
20260507024017 72 0.0 0.0 0.00 0.00 0.00 35 1013.1
20260507023517 72 0.0 0.0 0.00 0.00 0.00 35 1012.9
20260507023017 73 0.0 0.0 0.00 0.00 0.00 34 1012.8
20260507022517 73 0.0 0.0 0.00 0.00 0.00 34 1012.7
20260507022017 74 0.0 0.0 0.00 0.00 0.00 33 1012.8
20260507021517 74 0.0 2.0 0.00 0.00 0.00 33 1012.8
20260507021017 74 0.0 4.0 0.00 0.00 0.00 32 1012.7
20260507020518 75 0.0 0.0 0.00 0.00 0.00 32 1012.6
20260507020016 75 0.0 0.0 0.00 0.00 0.00 32 1012.6
20260507015516 75 0.0 0.0 0.00 0.00 0.00 31 1012.5
20260507015016 76 0.0 0.0 0.00 0.00 0.00 31 1012.5
20260507014516 76 0.0 0.0 0.00 0.00 0.00 30 1012.4
20260507014016 76 0.0 0.0 0.00 0.00 0.00 30 1012.3
20260507013516 77 0.0 0.0 0.00 0.00 0.00 30 1012.2
20260507013017 77 0.0 0.0 0.00 0.00 0.00 29 1012.1
20260507012516 78 0.0 0.0 0.00 0.00 0.00 29 1011.9
20260507012017 78 0.0 0.0 0.00 0.00 0.00 29 1011.9
20260507011516 78 0.0 0.0 0.00 0.00 0.00 28 1011.8
20260507011016 78 0.0 0.0 0.00 0.00 0.00 28 1011.7
20260507010517 79 0.0 0.0 0.00 0.00 0.00 29 1011.7
20260507010016 79 0.0 0.0 0.00 0.00 0.00 28 1011.7
20260507005516 79 0.0 0.0 0.00 0.00 0.00 28 1011.7
20260507005016 79 0.0 0.0 0.00 0.00 0.00 28 1011.6
20260507004516 79 0.0 0.0 0.00 0.00 0.00 28 1011.6
20260507004016 80 0.0 0.0 0.00 0.00 0.00 28 1011.6
20260507003517 80 0.0 0.0 0.00 0.00 0.00 28 1011.7
20260507003016 80 0.0 0.0 0.00 0.00 0.00 28 1011.7
20260507002517 80 0.0 0.0 0.00 0.00 0.00 28 1011.7
20260507002016 80 113 1.0 8.0 0.00 0.00 0.00 27 1011.7
20260507001516 80 0.0 0.0 0.00 0.00 0.00 27 1011.7
20260507001016 80 0.0 0.0 0.00 0.00 0.00 27 1011.7
20260507000516 80 0.0 0.0 0.00 0.00 0.00 28 1011.5
20260507000016 80 0.0 0.0 0.00 0.00 0.00 28 1011.5
20260506235516 80 0.0 0.0 0.00 0.00 0.00 28 1011.5
20260506235017 80 0.0 0.0 0.00 0.00 0.00 28 1011.5
20260506234516 80 0.0 0.0 0.00 0.00 0.00 28 1011.5
20260506234016 81 0.0 1.0 0.00 0.00 0.00 28 1011.5
20260506233517 81 0.0 0.0 0.00 0.00 0.00 27 1011.7
20260506233016 81 0.0 3.0 0.00 0.00 0.00 27 1011.7
20260506232517 81 0.0 0.0 0.00 0.00 0.00 27 1011.8
20260506232016 81 0.0 0.0 0.00 0.00 0.00 27 1011.8
20260506231516 81 0.0 1.0 0.00 0.00 0.00 26 1011.7
20260506231016 82 0.0 1.0 0.00 0.00 0.00 26 1011.9
20260506230516 82 0.0 0.0 0.00 0.00 0.00 26 1011.8
20260506230016 82 0.0 0.0 0.00 0.00 0.00 25 1011.7
20260506225516 83 0.0 0.0 0.00 0.00 0.00 25 1011.8
20260506225016 83 0.0 0.0 0.00 0.00 0.00 25 1011.9
20260506224516 83 0.0 0.0 0.00 0.00 0.00 25 1011.9
20260506224016 83 0.0 0.0 0.00 0.00 0.00 25 1012.0
20260506223516 82 0.0 0.0 0.00 0.00 0.00 25 1012.1
20260506223016 82 0.0 0.0 0.00 0.00 0.00 25 1012.2
20260506222516 81 0.0 0.0 0.00 0.00 0.00 27 1012.0
20260506222016 81 0.0 0.0 0.00 0.00 0.00 26 1012.1
20260506221516 80 0.0 0.0 0.00 0.00 0.00 27 1012.1
20260506221016 80 0.0 0.0 0.00 0.00 0.00 29 1012.1
20260506220516 80 0.0 0.0 0.00 0.00 0.00 28 1011.9
20260506220016 80 0.0 0.0 0.00 0.00 0.00 29 1011.9
20260506215516 79 0.0 0.0 0.00 0.00 0.00 28 1011.8
20260506215016 80 0.0 0.0 0.00 0.00 0.00 28 1012.1
20260506214517 80 0.0 1.0 0.00 0.00 0.00 28 1012.1
20260506214016 81 0.0 0.0 0.00 0.00 0.00 28 1012.0
20260506213516 81 0.0 0.0 0.00 0.00 0.00 29 1012.1
20260506213017 81 0.0 0.0 0.00 0.00 0.00 29 1012.1
20260506212516 81 0.0 0.0 0.00 0.00 0.00 26 1012.3
20260506212016 81 0.0 0.0 0.00 0.00 0.00 27 1012.5
20260506211516 81 0.0 0.0 0.00 0.00 0.00 28 1012.5
20260506211016 81 0.0 0.0 0.00 0.00 0.00 29 1012.7
20260506210516 81 0.0 0.0 0.00 0.00 0.00 27 1012.8
20260506210016 80 0.0 0.0 0.00 0.00 0.00 27 1012.6
20260506205517 80 45 1.0 4.0 0.00 0.00 0.00 27 1012.8
20260506205016 80 0.0 3.0 0.00 0.00 0.00 28 1012.8
20260506204516 81 0.0 5.0 0.00 0.00 0.00 28 1013.1
20260506204017 81 0.0 0.0 0.00 0.00 0.00 27 1013.1
20260506203516 81 0.0 0.0 0.00 0.00 0.00 28 1013.1
20260506203016 80 0.0 0.0 0.00 0.00 0.00 30 1013.0
20260506202516 79 0.0 0.0 0.00 0.00 0.00 31 1013.1
20260506202016 79 0.0 0.0 0.00 0.00 0.00 30 1013.1
20260506201516 79 0.0 0.0 0.00 0.00 0.00 30 1013.2
20260506201016 79 0.0 0.0 0.00 0.00 0.00 30 1013.2
20260506200516 79 0.0 0.0 0.00 0.00 0.00 31 1013.3
20260506200017 79 0.0 0.0 0.00 0.00 0.00 30 1013.3
20260506195516 79 0.0 0.0 0.00 0.00 0.00 31 1013.4
20260506195019 78 0.0 0.0 0.00 0.00 0.00 32 1013.4
20260506194516 77 0.0 0.0 0.00 0.00 0.00 34 1013.3
20260506194017 76 0.0 0.0 0.00 0.00 0.00 34 1013.3
20260506193516 77 68 1.0 5.0 0.00 0.00 0.00 34 1013.4
20260506193017 77 68 1.0 10.0 0.00 0.00 0.00 34 1013.4
20260506192517 76 45 1.0 5.0 0.00 0.00 0.00 35 1013.4
20260506192018 76 0.0 0.0 0.00 0.00 0.00 37 1013.5
20260506191516 76 0.0 4.0 0.00 0.00 0.00 37 1013.6
20260506191016 75 90 1.0 7.0 0.00 0.00 0.00 38 1013.3
20260506190516 74 0.0 0.0 0.00 0.00 0.00 38 1013.5
20260506190017 74 68 1.0 9.0 0.00 0.00 0.00 38 1013.6
20260506185516 74 0.0 3.0 0.00 0.00 0.00 39 1013.5
20260506185016 74 0.0 3.0 0.00 0.00 0.00 39 1013.7
20260506184516 74 113 1.0 8.0 0.00 0.00 0.00 40 1013.7
20260506184016 74 0.0 2.0 0.00 0.00 0.00 41 1013.6
20260506183516 73 68 2.0 12.0 0.00 0.00 0.00 40 1013.6
20260506183016 73 0.0 0.0 0.00 0.00 0.00 43 1013.6
20260506182516 73 0.0 2.0 0.00 0.00 0.00 41 1013.7
20260506182016 73 0.0 1.0 0.00 0.00 0.00 41 1013.7
20260506181516 73 0.0 1.0 0.00 0.00 0.00 42 1013.7
20260506181016 73 0.0 7.0 0.00 0.00 0.00 40 1013.7
20260506180516 73 0.0 1.0 0.00 0.00 0.00 42 1013.7
20260506180017 73 0.0 3.0 0.00 0.00 0.00 42 1013.8
20260506175517 72 0.0 4.0 0.00 0.00 0.00 42 1013.9
20260506175016 72 0.0 1.0 0.00 0.00 0.00 43 1013.9
20260506174516 72 0.0 1.0 0.00 0.00 0.00 43 1013.8
20260506174016 71 68 2.0 12.0 0.00 0.00 0.00 44 1013.7
20260506173516 71 0.0 1.0 0.00 0.00 0.00 46 1014.0
20260506173016 71 0.0 4.0 0.00 0.00 0.00 46 1013.9
20260506172516 71 0.0 7.0 0.00 0.00 0.00 48 1013.9
20260506172016 71 0.0 3.0 0.00 0.00 0.00 47 1013.9
20260506171516 71 0.0 1.0 0.00 0.00 0.00 48 1014.0
20260506171017 71 45 1.0 9.0 0.00 0.00 0.00 48 1014.0
20260506170517 72 68 2.0 14.0 0.00 0.00 0.00 45 1013.8
20260506170017 73 45 1.0 6.0 0.00 0.00 0.00 39 1013.9
20260506165517 75 68 2.0 14.0 0.00 0.00 0.00 36 1013.9
20260506165016 76 0.0 0.0 0.00 0.00 0.00 27 1013.9
20260506164516 76 0.0 5.0 0.00 0.00 0.00 25 1013.7
20260506164016 76 0.0 0.0 0.00 0.00 0.00 25 1013.6
20260506163516 76 0.0 6.0 0.00 0.00 0.00 26 1013.7
20260506163017 76 0.0 4.0 0.00 0.00 0.00 25 1013.6
20260506162516 76 0.0 1.0 0.00 0.00 0.00 24 1013.6
20260506162016 76 0.0 4.0 0.00 0.00 0.00 24 1013.6
20260506161516 76 0.0 1.0 0.00 0.00 0.00 24 1013.6
20260506161016 76 338 2.0 15.0 0.00 0.00 0.00 24 1013.6
20260506160516 76 338 1.0 6.0 0.00 0.00 0.00 25 1013.7
20260506160016 76 0 1.0 9.0 0.00 0.00 0.00 24 1013.6
20260506155516 75 315 1.0 9.0 0.00 0.00 0.00 25 1013.5
20260506155016 75 0.0 2.0 0.00 0.00 0.00 25 1013.5
20260506154516 75 0.0 4.0 0.00 0.00 0.00 25 1013.5
20260506154016 75 0.0 0.0 0.00 0.00 0.00 26 1013.4
20260506153516 74 0.0 3.0 0.00 0.00 0.00 26 1013.4
20260506153016 74 315 1.0 3.0 0.00 0.00 0.00 27 1013.4
20260506152516 74 0.0 4.0 0.00 0.00 0.00 28 1013.4
20260506152016 73 0.0 3.0 0.00 0.00 0.00 28 1013.3
20260506151516 72 0.0 2.0 0.00 0.00 0.00 28 1013.0
20260506151016 72 0.0 0.0 0.00 0.00 0.00 31 1012.9
20260506150517 71 0.0 0.0 0.00 0.00 0.00 32 1013.1
20260506150017 71 0.0 0.0 0.00 0.00 0.00 31 1013.1
20260506145516 71 0.0 0.0 0.00 0.00 0.00 32 1013.0
20260506145017 70 0.0 0.0 0.00 0.00 0.00 33 1013.1
20260506144516 70 0.0 0.0 0.00 0.00 0.00 33 1012.9
20260506144016 70 0.0 0.0 0.00 0.00 0.00 33 1012.9
20260506143516 70 0.0 0.0 0.00 0.00 0.00 32 1013.0
20260506143017 70 0.0 0.0 0.00 0.00 0.00 34 1012.9
20260506142516 69 0.0 3.0 0.00 0.00 0.00 33 1012.7
20260506142016 69 0.0 0.0 0.00 0.00 0.00 34 1012.7
20260506141516 68 0.0 0.0 0.00 0.00 0.00 35 1012.6
20260506141016 68 0.0 1.0 0.00 0.00 0.00 39 1012.7
20260506140516 67 0.0 0.0 0.00 0.00 0.00 40 1012.6
20260506140016 67 0.0 0.0 0.00 0.00 0.00 44 1012.7
20260506135516 67 0.0 0.0 0.00 0.00 0.00 50 1012.7
20260506135016 67 0.0 0.0 0.00 0.00 0.00 47 1012.7
20260506134516 67 0.0 0.0 0.00 0.00 0.00 40 1012.5
20260506134017 67 0.0 0.0 0.00 0.00 0.00 40 1012.5
20260506133516 67 0.0 0.0 0.00 0.00 0.00 41 1012.6
20260506133016 67 0.0 0.0 0.00 0.00 0.00 40 1012.3
20260506132516 66 0.0 0.0 0.00 0.00 0.00 42 1012.3
20260506132016 66 0.0 0.0 0.00 0.00 0.00 44 1012.2
20260506131516 66 0.0 0.0 0.00 0.00 0.00 44 1012.1
20260506131016 66 0.0 0.0 0.00 0.00 0.00 44 1012.0
20260506130516 67 0.0 0.0 0.00 0.00 0.00 44 1012.2
20260506130016 67 0.0 0.0 0.00 0.00 0.00 43 1012.1
20260506125516 67 0.0 0.0 0.00 0.00 0.00 43 1012.1
20260506125016 67 0.0 0.0 0.00 0.00 0.00 42 1012.0
20260506124516 67 0.0 0.0 0.00 0.00 0.00 42 1012.0
20260506124016 67 0.0 0.0 0.00 0.00 0.00 42 1011.9
20260506123516 67 0.0 0.0 0.00 0.00 0.00 42 1012.0
20260506123016 67 0.0 0.0 0.00 0.00 0.00 42 1012.0
20260506122516 68 0.0 0.0 0.00 0.00 0.00 41 1012.0
20260506122016 68 0.0 0.0 0.00 0.00 0.00 41 1011.7
20260506121516 68 0.0 0.0 0.00 0.00 0.00 40 1011.7
20260506121016 69 0.0 0.0 0.00 0.00 0.00 39 1011.7
20260506120516 68 0.0 0.0 0.00 0.00 0.00 39 1011.9
20260506120016 68 0.0 0.0 0.00 0.00 0.00 40 1011.8
20260506115516 68 0.0 0.0 0.00 0.00 0.00 41 1011.7
20260506115016 67 0.0 0.0 0.00 0.00 0.00 42 1011.4